Location: Unspecified
(30.6162°N, 0.0000°E)
Time: 18:51:05
(UTC+00:00)

NOAA 16 DEB - Visible Passes

Search period start: 04 April 2026 00:00
Search period end: 14 April 2026 00:00
Orbit: 728 x 754 km, 98.9° (Epoch: 28 March)

Date Brightness Start Highest point End Pass type
(mag) Time Alt. Az. Time Alt. Az. Time Alt. Az.
4 Apr ? 02:40:11 18° E 02:41:16 19° ENE 02:44:39 10° NNE visible
4 Apr ? 04:19:49 34° W 04:19:49 34° W 04:23:51 10° NNW visible
5 Apr ? 03:34:57 67° ESE 03:35:26 74° ENE 03:40:19 10° N visible
6 Apr ? 02:50:04 20° E 02:51:44 24° ENE 02:55:37 10° NNE visible
6 Apr ? 04:29:43 27° WSW 04:29:58 27° W 04:34:07 10° NW visible
7 Apr ? 03:44:49 54° S 03:45:56 86° WSW 03:50:50 10° NNW visible
8 Apr ? 02:59:54 21° ESE 03:02:08 31° ENE 03:06:24 10° N visible
8 Apr ? 04:39:32 20° WSW 04:40:30 21° W 04:44:13 10° NW visible
9 Apr ? 02:17:54 10° ENE 02:18:37 10° ENE 02:19:19 10° NE visible
9 Apr ? 03:54:36 38° S 03:56:24 67° WSW 04:01:17 10° NNW visible
10 Apr ? 03:09:39 20° SE 03:12:31 39° ENE 03:17:04 10° N visible
10 Apr ? 04:49:18 14° WSW 04:51:01 17° W 04:54:06 10° NW visible
11 Apr ? 02:26:35 10° E 02:28:54 13° ENE 02:31:15 10° NE visible
11 Apr ? 04:04:20 26° SSW 04:06:49 51° W 04:11:36 10° NNW visible
12 Apr ? 03:19:21 17° SE 03:22:52 50° ENE 03:27:36 10° N visible
12 Apr ? 04:59:23 10° WSW 05:01:29 13° W 05:03:36 10° WNW visible
13 Apr ? 02:36:02 10° ESE 02:39:10 17° ENE 02:42:18 10° NNE visible
13 Apr ? 04:14:00 18° SSW 04:17:12 39° W 04:21:48 10° NNW visible
